Weather in Luzhki

Russia / Ivanovo Oblast     56°49′30″N   41°46′46″E
temp.,
°C
wind,
m/s
gust,
m/s
humid.,
%
clouds,
%
prec.,
mm/h
press.,
hPa
HPBL,
m
2 march, tue
tue200:00+1wsw51296100 0.2 1008621
03:00+1w61396100 0.3 1006803
06:00+1w51197100 0.3 1003847
09:00+1wnw51191100 0.6 1003919
12:00+1wnw51090100 0.3 10021034
15:00+1wnw51087100 0.6 10031116
18:00−1nw51191100 0.1 1003857
21:00−2nw41286100 0.3 1005747
3 march, wed
wed300:00−5nw5138761 0.0 1006625
03:00−6nw5129176 0.1 1008721
06:00−7nw51291100 0.1 1009650
09:00−7nw51190100 0.1 1011625
12:00−4nw598285 0.0 1010707
15:00−2wnw598776 0.1 1009898
18:00−3w4129199 0.1 1008658
21:00−4w5139196 0.1 1008594
4 march, thu
thu400:00−4wsw4129397 0.0 1006457
03:00−3wsw5129498 0.1 1004590
06:00−3sw51296100 0.8 999620
09:000wsw71397100 2.1 9961071
12:00+1wsw61286100 0.1 9941119
15:000w61298100 0.6 994935
18:00−3wnw41181100 0.4 994736
21:00−5nw41190100 0.4 997645
5 march, fri
fri500:00−9nw399356 0.0 1000311
03:00−11nw269647 0.0 1003144
06:00−12wnw27950 0.0 1005151
09:00−10nw36919 0.0 1007274
12:00−7wnw248343 0.0 1009499
15:00−5nw247622 0.0 1010657
18:00−10nne00860 0.0 100821
21:00−11ese11880 0.0 100921
6 march, sat
sat600:00−12e119263 0.0 100921
03:00−13ene119275 0.0 100921
06:00−14n129250 0.0 100820
09:00−11nw129057 0.0 1008144
12:00−7wnw249094 0.1 1008432
15:00−6nw358697 0.4 1008737
18:00−10nw389198 0.1 1009253
21:00−14nw259557 0.1 1010100